EW7642 Victoria CA current weather conditions

sailwx.info

Wind from 342

Air temperature 5.6° C
Dewpoint 4.4° C

Last reported at 2019-Dec-09 17:00 UTC.
Time now 2019-Dec-09 18:07 UTC

Location: N 48°26' W 123°23'.
View on Google Maps.

See reports from other nearby stations

  
Tides and Currents Weather Stations Pressure Air Temp Water Temp Dewpoint Dewpoint Depression Visibility Wind Speed Wind Dir Waves Ship Positions
date/time (UTC)wind fromknots sea level pressurealtimeterstation pressurevisibilityair tempwater tempwave heightnotes
2019-Dec-09 17:00 342 5.6
2019-Dec-09 16:45 347 5.0
2019-Dec-09 16:30 347 5.0
2019-Dec-09 16:15 347 5.0
2019-Dec-09 16:00 347 5.0
2019-Dec-09 15:45 346 5.0
2019-Dec-09 15:30 347 5.0
2019-Dec-09 15:15 315 5.0
2019-Dec-09 15:01 314 5.6
2019-Dec-09 14:46 315 5.6
2019-Dec-09 14:30 342 6.1
2019-Dec-09 14:15 033 6.1
2019-Dec-09 14:00 033 6.7
2019-Dec-09 13:45 033 6.7
2019-Dec-09 13:30 011 6.7
2019-Dec-09 13:15 005 6.7
2019-Dec-09 13:00 005 6.7
2019-Dec-09 12:45 005 6.7
2019-Dec-09 12:30 005 6.7
2019-Dec-09 12:15 022 6.1
2019-Dec-09 12:00 339 6.1
2019-Dec-09 11:45 320 1 gusting 3 5.6
2019-Dec-09 11:32 316 5.0
2019-Dec-09 11:17 316 5.0
2019-Dec-09 11:01 316 5.0
2019-Dec-09 10:47 316 5.0
2019-Dec-09 10:31 316 0 gusting 3 5.0
2019-Dec-09 10:16 316 5.0
2019-Dec-09 10:01 315 5.0
2019-Dec-09 09:46 331 1 gusting 3 5.0
2019-Dec-09 09:31 332 1 gusting 2 5.6
2019-Dec-09 09:16 332 0 gusting 3 5.6
2019-Dec-09 09:01 323 5.6
2019-Dec-09 08:46 323 5.6
2019-Dec-09 08:31 323 5.6
2019-Dec-09 08:16 323 5.6
2019-Dec-09 08:01 323 0 gusting 3 6.1
2019-Dec-09 07:45 340 6.1
2019-Dec-09 07:31 342 6.1
2019-Dec-09 07:15 331 2 gusting 4 6.7
2019-Dec-09 07:01 329 1 gusting 3 6.7
2019-Dec-09 06:45 336 1 gusting 3 6.7
2019-Dec-09 06:30 355 1 gusting 5 6.7
2019-Dec-09 06:15 342 1 gusting 4 6.7
2019-Dec-09 06:00 336 2 gusting 5 6.7
2019-Dec-09 05:46 355 2 gusting 5 6.7
2019-Dec-09 05:30 331 3 gusting 5 6.7
2019-Dec-09 05:15 344 2 gusting 3 7.2
2019-Dec-09 05:00 005 7.2
2019-Dec-09 04:45 355 2 gusting 6 7.2
2019-Dec-09 04:30 350 3 gusting 6 7.2
2019-Dec-09 04:15 325 3 gusting 5 7.8
2019-Dec-09 04:00 035 1 gusting 4 7.8
2019-Dec-09 03:45 034 1 gusting 3 7.8
2019-Dec-09 03:30 049 2 gusting 3 7.8
2019-Dec-09 03:15 349 0 gusting 2 7.8
2019-Dec-09 03:02 350 7.8
2019-Dec-09 02:46 023 2 gusting 4 7.8
2019-Dec-09 02:31 360 7.8
2019-Dec-09 02:17 035 1 gusting 3 7.8
2019-Dec-09 02:02 091 1 gusting 3 8.3
2019-Dec-09 01:46 059 8.3
2019-Dec-09 01:31 096 3 gusting 5 8.3
2019-Dec-09 01:17 088 2 gusting 6 8.3
2019-Dec-09 01:02 061 1 gusting 4 8.3
2019-Dec-09 00:46 061 2 gusting 4 8.3
2019-Dec-09 00:31 067 2 gusting 3 8.3
2019-Dec-09 00:17 054 1 gusting 3 8.9
2019-Dec-09 00:02 023 1 gusting 4 8.9
2019-Dec-08 23:46 034 3 gusting 5 8.9
2019-Dec-08 23:32 050 4 gusting 8 8.9
2019-Dec-08 23:16 024 5 gusting 10 8.9
2019-Dec-08 23:01 032 6 gusting 10 8.9
2019-Dec-08 22:46 036 6 gusting 9 8.9
2019-Dec-08 22:31 031 6 gusting 9 8.9
2019-Dec-08 22:15 032 5 gusting 8 8.9
2019-Dec-08 22:01 009 6 gusting 8 8.9
2019-Dec-08 21:46 013 4 gusting 7 9.4
2019-Dec-08 21:30 037 5 gusting 8 9.4
2019-Dec-08 21:15 023 4 gusting 9 9.4
2019-Dec-08 21:00 039 4 gusting 7 9.4
2019-Dec-08 20:45 046 4 gusting 8 9.4
2019-Dec-08 20:30 005 4 gusting 7 9.4
2019-Dec-08 20:15 005 2 gusting 8 9.4
2019-Dec-08 20:00 013 4 gusting 7 9.4
2019-Dec-08 19:45 032 4 gusting 7 9.4
2019-Dec-08 19:30 013 6 gusting 8 9.4
2019-Dec-08 19:15 005 6 gusting 10 9.4
2019-Dec-08 19:00 022 3 gusting 7 8.9
2019-Dec-08 18:47 015 4 gusting 7 8.9
2019-Dec-08 18:31 355 2 gusting 5 8.9
2019-Dec-08 18:17 360 3 gusting 5 8.9
2019-Dec-08 18:01 056 3 gusting 5 8.3
2019-Dec-08 17:47 088 1 gusting 5 8.3
2019-Dec-08 17:31 202 8.3
2019-Dec-08 17:16 202 7.8
2019-Dec-08 17:01 202 8.3
2019-Dec-08 16:46 202 8.3
2019-Dec-08 16:31 202 8.3
2019-Dec-08 16:16 202 8.3
2019-Dec-08 16:01 202 8.3
2019-Dec-08 15:46 202 8.3
2019-Dec-08 15:31 202 8.3
2019-Dec-08 15:15 202 0 gusting 1 8.3
2019-Dec-08 15:00 202 8.3
2019-Dec-08 14:46 202 1 gusting 3 8.3
2019-Dec-08 14:30 202 0 gusting 4 8.9
2019-Dec-08 14:16 202 1 gusting 4 8.9
2019-Dec-08 14:00 199 8.9
2019-Dec-08 13:45 199 8.9
2019-Dec-08 13:30 284 8.9
2019-Dec-08 13:15 284 8.9
2019-Dec-08 13:01 284 8.9
2019-Dec-08 12:45 284 8.9
2019-Dec-08 12:30 275 8.9
2019-Dec-08 12:15 274 1 gusting 5 8.9
2019-Dec-08 12:00 248 3 gusting 6 8.9
2019-Dec-08 11:45 336 3 gusting 8 8.9
2019-Dec-08 11:30 012 8.9
2019-Dec-08 11:15 323 8.9
2019-Dec-08 11:00 306 8.9
2019-Dec-08 10:45 306 8.9
2019-Dec-08 10:31 306 8.9
2019-Dec-08 10:16 306 1 gusting 3 8.9
2019-Dec-08 10:03 328 3 gusting 6 8.9
2019-Dec-08 09:47 342 5 gusting 8 8.9
2019-Dec-08 09:31 340 2 gusting 5 8.9
2019-Dec-08 09:16 337 1 gusting 4 8.9
2019-Dec-08 09:01 337 8.9
2019-Dec-08 08:46 349 8.9
2019-Dec-08 08:32 349 8.9
2019-Dec-08 08:16 355 8.9
2019-Dec-08 08:01 331 8.3
2019-Dec-08 07:47 332 8.3
2019-Dec-08 07:31 332 8.3
2019-Dec-08 07:16 332 8.3
2019-Dec-08 07:01 332 8.3
2019-Dec-08 06:46 332 8.3
2019-Dec-08 06:31 332 8.3
2019-Dec-08 06:16 332 8.3
2019-Dec-08 06:00 332 8.3
2019-Dec-08 05:45 332 8.3
2019-Dec-08 05:30 332 8.9
2019-Dec-08 05:16 332 8.9
2019-Dec-08 05:00 332 8.9
2019-Dec-08 04:45 336 8.9
2019-Dec-08 04:30 336 8.9
2019-Dec-08 04:15 081 8.9
2019-Dec-08 04:00 081 8.9
2019-Dec-08 03:45 081 8.9
2019-Dec-08 03:30 081 8.9
2019-Dec-08 03:15 078 8.9
2019-Dec-08 03:00 078 8.9
2019-Dec-08 02:45 078 8.9
2019-Dec-08 02:30 078 8.9
2019-Dec-08 02:15 078 8.9
2019-Dec-08 02:00 092 8.9
2019-Dec-08 01:45 096 8.9
2019-Dec-08 01:30 075 8.9
2019-Dec-08 01:15 084 8.3
2019-Dec-08 01:00 074 2 gusting 4 8.9
2019-Dec-08 00:45 071 8.9
2019-Dec-08 00:17 090 2 gusting 3 8.9
2019-Dec-08 00:02 089 8.9
2019-Dec-07 23:47 093 8.9
2019-Dec-07 23:31 064 2 gusting 4 8.9
2019-Dec-07 23:16 098 1 gusting 6 8.9
2019-Dec-07 23:01 091 2 gusting 6 8.9
2019-Dec-07 22:47 120 6 gusting 7 8.9
2019-Dec-07 22:31 102 2 gusting 7 8.9
2019-Dec-07 22:16 107 3 gusting 7 8.9
2019-Dec-07 22:02 136 4 gusting 8 8.9
2019-Dec-07 21:46 109 3 gusting 6 8.9
2019-Dec-07 21:32 147 5 gusting 7 8.9
2019-Dec-07 21:15 139 3 gusting 7 8.9
2019-Dec-07 21:01 134 2 gusting 6 8.9
2019-Dec-07 20:46 082 2 gusting 5 8.9
2019-Dec-07 20:32 074 2 gusting 3 8.9
2019-Dec-07 20:15 080 0 gusting 3 8.9
2019-Dec-07 20:01 203 8.3
2019-Dec-07 19:46 203 8.3
2019-Dec-07 19:32 203 8.3
2019-Dec-07 19:16 203 8.3
2019-Dec-07 19:00 203 8.3
2019-Dec-07 18:46 203 8.3
2019-Dec-07 18:31 203 8.3
2019-Dec-07 18:16 203 8.3
2019-Dec-07 18:00 331 8.3